Regional Weather Roundup
Issued by NWS Kansas City/Pleasant Hill, MO

Home | Current Version | Previous Version | Text Only | Print | Product List | Glossary On
Versions: 1 2 3 4 5 6 7 8 9 10 11 12 13 14 15 16 17 18 19 20 21 22 23 24 25 26 27 28 29 30 31 32 33 34 35 36 37 38 39 40 41 42 43 44 45 46 47 48 49 50
000
ASUS43 KEAX 210704
RWREAX

WEATHER ROUNDUP FOR EASTERN KANSAS AND NORTHWEST MISSOURI
NATIONAL WEATHER SERVICE KANSAS CITY/PLEASANT HILL MO
200 AM CDT MON APR 21 2014

KSZ040-057-103>105-MOZ028-029-037-043-210800-
...KANSAS CITY METROPOLITAN AREA...

CITY           SKY/WX    TMP DP  RH WIND       PRES   REMARKS
K.C. INTL      CLOUDY    65  54  67 S10       30.00S
K.C. DOWNTOWN  CLOUDY    68  54  60 SW6       29.99F
LEES SUMMIT    CLOUDY    65  53  65 SW6       30.00F
OLATHE - IXD   CLOUDY    63  55  75 S8        30.01S
OLATHE - OJC   CLOUDY    63  54  72 S6        30.00F
LAWRENCE       CLOUDY    62  56  80 SE5       30.00S

$$

MOZ001>008-011>017-020>025-030>033-038>040-044>046-053-054-210800-
...NORTHERN AND CENTRAL MISSOURI...

CITY           SKY/WX    TMP DP  RH WIND       PRES   REMARKS
ST. JOSEPH     LGT RAIN  64  55  72 S3        29.98F
MOSBY          CLOUDY    64  54  68 SW3       29.99F
WHITEMAN AFB   PTCLDY    59  51  75 S3        30.00F
CLINTON        MOCLDY    55  55 100 CALM      30.01S
SEDALIA        PTCLDY    61  53  75 NW5       30.02S
WARSAW         NOT AVBL
MARSHALL         N/A     64  55  72 S3        30.01F
CHILLICOTHE      N/A     66  53  63 CALM      30.01S
MOBERLY        MOCLDY    64  50  59 SW5       30.02S
KIRKSVILLE     CLOUDY    66  52  60 W6        30.01S

$$

MOZ041-047>049-056>058-063>065-088>090-097-210800-
...EASTERN AND SOUTHERN MISSOURI...

CITY           SKY/WX    TMP DP  RH WIND       PRES   REMARKS
ST. LOUIS INTL MOCLDY    69  43  38 S7        30.03S
SPIRIT OF STL  MOCLDY    66  43  43 S3        30.01F
COLUMBIA       MOCLDY    63  50  62 CALM      30.02S
JEFFERSON CITY CLOUDY    60  52  74 CALM      30.01F
MEXICO         MOCLDY    57  50  77 CALM      30.02S
HANNIBAL       MOCLDY    68  46  45 CALM      30.01F
ROLLA          MOCLDY    62  47  57 S7        30.01F
LEBANON        MOCLDY    59  48  67 S3        30.04S
OSAGE BEACH    MOCLDY    61  48  63 CALM      30.03F
SPRINGFIELD    CLOUDY    63  51  65 S8        30.02F
BRANSON        CLOUDY    66  50  55 S6        30.05F
JOPLIN         LGT RAIN  61  58  90 SW8       30.04S
WEST PLAINS    CLOUDY    64  48  56 S5        30.06F

$$

IAZ060-094-KSZ022-034>040-054-083-096-NEZ052-066-093-210800-
...KANSAS...SOUTHEAST NEBRASKA AND IOWA...

CITY           SKY/WX    TMP DP  RH WIND       PRES   REMARKS
TOPEKA         LGT RAIN  66  55  67 SW7       29.99F
MANHATTAN      MOCLDY    60  55  83 SW5       29.98F
EMPORIA        MOCLDY    62  55  77 S12       30.00F
CHANUTE        LGT RAIN  61  58  90 S7        30.03S FOG
WICHITA        MOCLDY    57  54  89 S8        29.98F
OMAHA          CLOUDY    63  57  81 SE3       29.95F
LINCOLN        CLOUDY    60  54  80 SW5       29.96F
FALLS CITY     CLOUDY    65  57  75 S9        29.96F
LAMONI         MOCLDY    64  54  69 SW6       29.98S
DES MOINES     CLOUDY    64  54  69 CALM      29.97S

$$




USA.gov is the U.S. government's official web portal to all federal, state and local government web resources and services.